Location: Tarleton Observatory
(32.2162°N, 98.0976°W)
Time: 05:44:06
(UTC-05:00)

Daily predictions for brighter satellites

Satellite Brightness Start Highest point End
(mag) Time Altitude Azimuth Time Altitude Azimuth Time Altitude Azimuth
Cosmos 1833 Rocket 3.6 00:10:08 45° NNW 00:10:08 45° NNW 00:14:17 10° NNE
Terra 3.6 00:11:45 28° NW 00:11:45 28° NW 00:14:18 10° NNW
H-2A R/B 4.5 00:22:16 20° NW 00:22:16 20° NW 00:24:00 10° NW
Cosmos 1980 Rocket 3.6 00:36:13 10° N 00:39:36 34° NNE 00:39:36 34° NNE
Cosmos 2322 Rocket 4.2 00:45:12 10° NNE 00:48:24 19° NE 00:48:24 19° NE
SeaSat 1 4.5 01:09:30 25° NNW 01:09:30 25° NNW 01:11:29 10° NNW
Cosmos 2082 Rocket 4.4 01:06:39 17° WNW 01:07:13 17° WNW 01:10:50 10° NNW
CZ-2C R/B 4.2 01:23:13 10° N 01:26:29 32° NNW 01:26:29 32° NNW
USA 234 4.0 01:32:58 46° NE 01:33:09 46° NE 01:39:19 10° NNW
USA 229 DEB 4.3 01:27:57 10° NNW 01:33:13 53° NNW 01:33:13 53° NNW
USA 229 4.3 01:28:03 10° NNW 01:33:20 53° NNW 01:33:20 53° NNW
SL-16 R/B 3.7 01:32:46 10° N 01:36:00 33° N 01:36:00 33° N
Lacrosse 5 4.0 01:57:20 22° NNE 01:57:20 22° NNE 01:59:08 10° NNE
Cosmos 2360 Rocket 3.4 02:19:08 10° N 02:23:00 38° NNE 02:23:00 38° NNE
Cosmos 2322 Rocket 4.1 02:28:09 10° NNW 02:30:12 22° NW 02:30:12 22° NW
Resurs 1-4 Rocket 4.3 02:43:36 10° NE 02:46:41 17° E 02:46:41 17° E
CZ-2D R/B 4.2 02:47:42 10° NE 02:50:51 18° E 02:50:51 18° E
SL-16 R/B 4.5 02:52:25 14° ESE 02:56:04 23° ENE 03:00:45 10° NNE
Cosmos 2297 Rocket 4.1 02:58:57 20° E 02:58:57 20° E 03:02:43 10° NE
ATLAS 3B CENTAUR R/B 3.7 02:47:52 10° WSW 03:08:30 66° S 03:15:29 10° E
Cosmos 2219 Rocket 3.8 03:06:06 10° N 03:11:04 30° ENE 03:13:56 20° ESE
Cosmos 1140 Rocket 4.4 03:20:46 43° E 03:20:46 43° E 03:25:05 10° NNE
CZ-3A R/B 4.1 03:21:54 23° SE 03:21:54 23° SE 03:28:48 10° E
Lacrosse 5 rocket 3.8 03:16:48 10° NNW 03:18:04 18° NNW 03:18:04 18° NNW
Cosmos 2237 Rocket 4.4 03:18:59 10° N 03:23:13 21° ENE 03:27:24 10° ESE
ATLAS 2AS CENTAUR R/B 3.8 03:25:45 10° NNW 03:33:24 49° NE 03:40:25 10° SE
CBERS-1 4.5 03:29:03 10° N 03:33:10 56° NNW 03:33:10 56° NNW
Cosmos 2227 Rocket 2.4 03:35:24 60° ESE 03:35:24 60° ESE 03:40:57 10° NNE
NOSS 3-3 (A) 3.8 03:35:33 79° WNW 03:35:36 79° WNW 03:42:05 10° NNE
NOSS 3-3 (C) 3.8 03:35:38 80° WNW 03:35:41 80° WNW 03:42:11 10° NNE
Lacrosse 5 4.3 03:36:31 11° NW 03:37:51 12° NNW 03:39:55 10° N
Cosmos 1954 Rocket 4.1 03:40:38 72° N 03:40:38 72° N 03:45:22 10° NNE
NPP 4.1 03:35:44 10° N 03:40:18 52° NW 03:40:18 52° NW
Cosmos 407 Rocket 4.4 03:44:12 37° NW 03:44:12 37° NW 03:48:09 10° N
ARIANE 5 R/B 2.8 03:38:59 10° NNE 03:44:01 58° E 03:44:04 58° ESE
Meteor 1-11 4.1 03:48:29 83° S 03:48:42 88° E 03:54:26 10° N
Cosmos 2058 3.8 03:50:53 46° NNE 03:50:53 46° NNE 03:53:49 10° N
Cosmos 1023 Rocket 4.4 03:50:51 81° NNW 03:50:51 81° NNW 03:55:53 10° NNE
NOSS 2-1 (E) 4.4 03:51:58 42° NE 03:51:58 42° NE 03:54:45 10° NNE
ADEOS Rocket 3.5 03:44:28 10° NNE 03:51:58 89° WNW 03:54:18 51° SSW
Cosmos 2228 Rocket 4.3 03:47:43 10° NNW 03:50:27 35° NNW 03:50:27 35° NNW
Cosmos 2219 4.4 03:52:43 28° WNW 03:52:43 28° WNW 03:57:17 10° N
COSMOS 2428 3.0 03:49:18 10° NNW 03:53:57 51° WNW 03:53:57 51° WNW
ERS-1 4.4 03:56:33 10° N 04:01:40 73° WNW 04:01:44 73° W
DELTA 2 R/B (1) 3.5 04:02:06 66° SSE 04:02:14 66° SSE 04:07:45 10° ENE
Cosmos 2082 3.5 04:02:06 72° SSW 04:02:43 89° ESE 04:08:22 10° NNE
Cosmos 2233 Rocket 4.2 03:59:51 10° NNW 04:05:56 51° W 04:06:15 51° W
Cosmos 2360 Rocket 4.5 04:04:35 10° WNW 04:04:43 10° WNW 04:04:43 10° WNW
SL-08 R/B 4.4 04:10:18 32° WNW 04:10:18 32° WNW 04:13:28 10° NNW
Cosmos 1072 Rocket 4.5 04:03:44 10° N 04:09:52 77° E 04:12:51 33° SSE
Cosmos 1703 3.9 04:11:15 49° NNW 04:11:15 49° NNW 04:14:14 10° N
Spot 4 Rocket 4.1 04:06:13 10° N 04:11:16 58° WNW 04:11:30 58° W
Cosmos 1455 3.3 04:09:52 10° N 04:13:33 42° E 04:14:26 36° ESE
Lacrosse 4 Rocket 3.4 04:12:56 17° SE 04:14:06 19° ESE 04:17:02 10° ENE
CZ-2D R/B 3.9 04:14:35 10° NNE 04:18:32 54° E 04:19:08 49° SE
Cosmos 2151 4.2 04:20:03 29° NW 04:20:03 29° NW 04:22:50 10° NNW
Cosmos 1900 4.2 04:19:35 66° SSW 04:20:16 88° ESE 04:25:16 10° NNE
Cosmos 1151 Rocket 3.8 04:19:37 10° NNW 04:22:47 38° WNW 04:22:47 38° WNW
Resurs 1-4 Rocket 2.4 04:21:53 10° N 04:26:56 47° WNW 04:27:46 43° W
IRS-1D 4.0 04:22:53 10° N 04:27:58 45° WNW 04:28:48 42° W
Cosmos 2333 Rocket 2.1 04:22:47 10° NNW 04:28:27 68° WSW 04:31:07 32° S
Cosmos 1707 Rocket 4.4 04:25:59 10° N 04:30:13 48° E 04:33:29 16° SSE
CZ-3 R/B 4.0 03:35:01 10° WSW 04:30:51 79° S 04:41:44 10° E
CZ-2D R/B 2.5 04:26:27 10° N 04:31:20 43° WNW 04:32:11 39° W
UNKNOWN OBJECT B 2.6 04:27:42 10° N 04:31:45 80° W 04:32:06 71° SW
Cosmos 1464 Rocket 3.8 04:26:19 10° N 04:32:28 75° W 04:35:45 29° S
UNK 4.1 04:33:15 43° W 04:33:15 43° W 04:37:22 10° NNW
SL-16 R/B 2.8 04:37:30 36° SW 04:39:18 46° W 04:45:12 10° NNW
Cosmos 1666 Rocket 3.5 04:38:04 41° S 04:39:33 85° E 04:43:59 10° N
MOS 1 Rocket 3.5 04:36:24 10° N 04:41:33 86° WNW 04:44:10 31° SSW
ADEOS 4.3 04:37:01 10° N 04:41:45 36° WNW 04:42:52 32° W
Cosmos 2297 Rocket 2.7 04:40:46 35° WSW 04:42:23 43° WNW 04:47:46 10° N
ADEOS II 3.6 04:37:55 10° NE 04:42:38 33° E 04:47:19 10° SSE
Transit 2A Rocket 4.4 04:41:55 51° SW 04:42:58 81° WNW 04:47:17 10° NNE
Cosmos 1980 3.7 04:41:52 10° NNW 04:47:28 61° WSW 04:52:49 11° S
MOS 1-B 4.5 04:42:36 10° NNE 04:48:22 73° ESE 04:52:43 18° S
Cosmos 1626 3.9 04:49:54 19° WNW 04:49:54 19° WNW 04:52:02 10° NNW
Cosmos 2219 Rocket 3.0 04:50:01 10° NW 04:54:52 30° WSW 04:55:32 29° WSW
Aureole 2 Rocket 3.1 04:51:31 10° NNW 04:55:25 46° WSW 04:56:29 37° SW
Cosmos 1805 Rocket 4.2 04:56:01 33° WSW 04:56:55 36° W 05:01:03 10° NNW
GPS 2-04 Rocket1 3.5 04:54:11 18° WNW 04:57:04 54° N 05:01:17 10° E
CZ-3B DEB 4.5 04:47:40 23° SW 04:58:06 89° SE 05:12:47 10° NE
Hubble Space Telescope 1.7 04:58:41 30° SSW 04:58:41 30° SSW 05:02:13 10° SE
Okean O Rocket 2.7 04:55:43 10° NNE 04:59:51 41° E 05:03:56 10° S
NOSS 0 Rocket 4.4 04:57:50 10° NW 05:03:26 37° WSW 05:07:55 15° SSW
Meteosat 1 Rocket2 4.3 05:03:56 19° S 05:04:36 19° SSE 05:07:18 10° ESE
SL-16 R/B 2.6 04:59:43 10° NNW 05:05:23 68° ENE 05:11:00 10° SSE
CZ-4B R/B 3.8 05:01:24 10° NNE 05:05:44 52° E 05:09:53 10° S
Cosmos 2237 Rocket 2.5 05:02:06 10° NW 05:07:23 43° WSW 05:12:39 10° S
CZ-4B R/B 4.1 05:03:03 10° NNE 05:08:09 45° E 05:13:16 10° S
USA 161 2.4 05:13:32 22° NW 05:13:32 22° NW 05:14:32 10° NNW
ORS 1 (USA 231) 4.3 05:11:53 38° WSW 05:12:53 85° SSE 05:15:55 10° ENE
Cosmos 1570 Rocket 4.2 05:10:13 10° NNW 05:15:24 53° WSW 05:20:33 10° S
ISS -0.9 05:14:36 10° NNW 05:17:10 21° NE 05:19:43 10° E
Cosmos 2227 Rocket 4.0 05:17:14 12° W 05:19:49 16° WNW 05:23:15 10° NNW
ARIANE 5 R/B 4.4 05:20:11 10° NW 05:22:33 13° WNW 05:24:24 11° W
Cosmos 1470 Rocket 3.4 05:19:48 12° S 05:23:45 75° W 05:28:05 10° N
ATLAS 2AS CENTAUR R/B 3.5 05:17:27 10° NW 05:24:00 31° WSW 05:30:05 10° SSW
ATLAS 5 CENTAUR R/B 3.8 05:21:29 10° SSE 05:25:05 23° ESE 05:28:51 10° ENE
PAYLOAD B 4.3 05:22:23 10° NNE 05:27:54 82° ESE 05:33:23 10° SSW
Cosmos 1633 Rocket 4.0 05:25:57 19° SW 05:28:14 29° W 05:32:04 10° NNW
Cosmos 1869 4.1 05:28:31 10° NNW 05:32:07 32° W 05:35:19 12° SSW
USA 215 3.3 05:29:01 10° NE 05:35:35 87° SE 05:42:03 10° SW
Cosmos 1892 3.5 05:35:27 10° S 05:39:06 52° E 05:42:48 10° NNE
BREEZE-M R/B 3.5 05:34:33 13° SW 05:40:46 68° NW 05:44:21 10° NE
Meteor PRIRODA 4.3 05:42:00 10° NNE 05:45:36 56° E 05:49:10 10° S
Cosmos 2263 Rocket 3.4 05:42:40 10° S 05:47:50 41° ESE 05:53:02 10° NE
EO 1 Del DPAF 4.1 05:44:15 10° SSE 05:48:00 55° ENE 05:51:45 10° N
DELTA 2 R/B (1) 4.3 05:43:29 10° W 05:48:51 48° NNW 05:54:13 10° ENE
Cosmos 2242 Rocket 4.1 05:45:58 10° NNW 05:50:07 39° W 05:54:18 10° SSW
Cosmos 1486 Rocket 4.2 05:46:27 10° SSW 05:51:32 56° WNW 05:56:39 10° N
Lacrosse 4 Rocket 2.6 05:49:18 11° WSW 05:52:34 26° WNW 05:56:05 10° N
ATLAS 3B CENTAUR R/B 2.3 05:44:48 10° W 05:52:48 46° SSW 05:56:09 10° ESE
In-Cosmos 22 Rocket 4.2 05:48:41 10° SSW 05:53:56 57° W 05:59:10 10° N
Cosmos 1315 Rocket 3.2 05:52:38 10° S 05:56:42 70° E 06:00:43 10° NNE
OAO 3 Copernicus 4.4 05:52:09 10° WNW 05:57:15 90° N 06:02:20 10° ESE
PSLV R/B 4.2 06:00:36 10° N 06:04:27 35° WNW 06:08:16 10° SW
